Location: Arroyo Grande
(40.2671°N, 4.2512°W)
Time: 01:18:27
(UTC+00:00)

Cosmos 2278 Rocket - Pass Details

Date: 02 October 2023
Orbit: 842 x 844 km, 71.0° (Epoch: 03 December)

Event Time Altitude Azimuth Distance (km) Brightness Sun altitude
Rises 20:43:28 0° 321° (NW) 3,408 6.2 -31.6°
Reaches altitude 10° 20:46:31 10° 305° (NW) 2,468 5.5 -32.1°
Maximum altitude 20:50:29 20° 260° (W) 1,862 4.4 -32.8°
Enters shadow 20:53:57 12° 219° (SW) 2,330 4.6 -33.4°
